| time (UTC) | temp F | wind direction | speed MPH | gust MPH | rain 1hr in | rain 24hr in | rain mn in | humidity % | barometer mb |
| 20260503023048 | 54 | 337 | 1.0 | 7.0 | 0.00 | 0.00 | 0.00 | 38 | 1011.3 |
| 20260503021513 | 54 | 69 | 1.0 | 6.0 | 0.00 | 0.00 | 0.00 | 39 | 1011.3 |
| 20260503020331 | 55 | 11 | 1.0 | 4.0 | 0.00 | 0.00 | 0.00 | 38 | 1011.4 |
| 20260503020058 | 54 | 316 | 0.0 | 6.0 | 0.00 | 0.00 | 0.00 | 38 | 1011.4 |
| 20260503014505 | 55 | 38 | 2.0 | 6.0 | 0.00 | 0.00 | 0.00 | 38 | 1011.3 |
| 20260503013026 | 55 | 45 | 1.0 | 8.0 | 0.00 | 0.00 | 0.00 | 37 | 1011.5 |
| 20260503011551 | 55 | 209 | 1.0 | 9.0 | 0.00 | 0.00 | 0.00 | 37 | 1011.3 |
| 20260503010051 | 56 | 290 | 2.0 | 8.0 | 0.00 | 0.00 | 0.00 | 37 | 1011.1 |
| 20260503004508 | 56 | 33 | 4.0 | 9.0 | 0.00 | 0.00 | 0.00 | 37 | 1010.9 |
| 20260503003043 | 56 | 11 | 4.0 | 11.0 | 0.00 | 0.00 | 0.00 | 37 | 1010.8 |
| 20260503001558 | 56 | 6 | 0.0 | 8.0 | 0.00 | 0.00 | 0.00 | 37 | 1010.7 |
| 20260503000302 | 57 | 329 | 1.0 | 5.0 | 0.00 | 0.00 | 0.00 | 37 | 1010.6 |
| 20260503000038 | 57 | 316 | 0.0 | 5.0 | 0.00 | 0.00 | 0.00 | 37 | 1010.6 |
| 20260502234551 | 57 | 328 | 2.0 | 7.0 | 0.00 | 0.00 | 0.00 | 36 | 1010.6 |
| 20260502233100 | 58 | 313 | 1.0 | 6.0 | 0.00 | 0.00 | 0.00 | 36 | 1010.6 |
| 20260502231516 | 58 | 219 | 0.0 | 4.0 | 0.00 | 0.00 | 0.00 | 36 | 1010.4 |
| 20260502230036 | 59 | 315 | 0.0 | 4.0 | 0.00 | 0.00 | 0.00 | 36 | 1010.3 |
| 20260502224546 | 59 | 334 | 0.0 | 4.0 | 0.00 | 0.00 | 0.00 | 36 | 1010.2 |
| 20260502223052 | 60 | 216 | 3.0 | 8.0 | 0.00 | 0.00 | 0.00 | 35 | 1010.2 |
| 20260502221512 | 60 | 310 | 0.0 | 7.0 | 0.00 | 0.00 | 0.00 | 35 | 1010.2 |
| 20260502220307 | 62 | 221 | 3.0 | 6.0 | 0.00 | 0.00 | 0.00 | 33 | 1010.2 |
| 20260502220027 | 62 | 184 | 2.0 | 8.0 | 0.00 | 0.00 | 0.00 | 33 | 1010.2 |
| 20260502214548 | 61 | 235 | 1.0 | 8.0 | 0.00 | 0.00 | 0.00 | 34 | 1010.2 |
| 20260502213048 | 61 | 337 | 0.0 | 6.0 | 0.00 | 0.00 | 0.00 | 34 | 1010.0 |
| 20260502211514 | 62 | 285 | 4.0 | 9.0 | 0.00 | 0.00 | 0.00 | 33 | 1009.9 |
| 20260502210031 | 60 | 334 | 3.0 | 7.0 | 0.00 | 0.00 | 0.00 | 35 | 1009.9 |
| 20260502204544 | 60 | 2 | 1.0 | 7.0 | 0.00 | 0.00 | 0.00 | 36 | 1009.9 |
| 20260502203054 | 60 | 150 | 2.0 | 5.0 | 0.00 | 0.00 | 0.00 | 36 | 1009.9 |
| 20260502201508 | 60 | 354 | 3.0 | 9.0 | 0.00 | 0.00 | 0.00 | 35 | 1010.1 |
| 20260502200304 | 61 | 13 | 2.0 | 6.0 | 0.00 | 0.00 | 0.00 | 35 | 1010.2 |
| 20260502200008 | 60 | 204 | 2.0 | 5.0 | 0.00 | 0.00 | 0.00 | 35 | 1010.3 |
| 20260502194531 | 60 | 304 | 1.0 | 6.0 | 0.00 | 0.00 | 0.00 | 36 | 1010.5 |
| 20260502193043 | 61 | 15 | 2.0 | 10.0 | 0.00 | 0.00 | 0.00 | 36 | 1010.7 |
| 20260502191602 | 61 | 330 | 1.0 | 5.0 | 0.00 | 0.00 | 0.00 | 39 | 1011.0 |
| 20260502190022 | 60 | 25 | 3.0 | 7.0 | 0.00 | 0.00 | 0.00 | 39 | 1011.1 |
| 20260502184554 | 59 | 8 | 2.0 | 6.0 | 0.00 | 0.00 | 0.00 | 43 | 1011.3 |
| 20260502183104 | 59 | 15 | 1.0 | 5.0 | 0.00 | 0.00 | 0.00 | 45 | 1011.4 |
| 20260502181508 | 59 | 319 | 2.0 | 8.0 | 0.00 | 0.00 | 0.00 | 45 | 1011.5 |
| 20260502180333 | 60 | 53 | 3.0 | 9.0 | 0.00 | 0.00 | 0.00 | 47 | 1011.6 |
| 20260502163054 | 58 | 206 | 1.0 | 6.0 | 0.00 | 0.00 | 0.00 | 53 | 1012.5 |
| 20260502161555 | 57 | 300 | 1.0 | 9.0 | 0.00 | 0.00 | 0.00 | 55 | 1012.4 |
| 20260502160304 | 57 | 280 | 2.0 | 7.0 | 0.00 | 0.00 | 0.00 | 56 | 1012.4 |
| 20260502151540 | 53 | 309 | 1.0 | 5.0 | 0.00 | 0.00 | 0.00 | 63 | 1012.7 |
| 20260502150104 | 53 | 304 | 1.0 | 6.0 | 0.00 | 0.00 | 0.00 | 64 | 1012.6 |
| 20260502140113 | 54 | 27 | 0.0 | 5.0 | 0.00 | 0.00 | 0.00 | 68 | 1012.6 |
| 20260502123046 | 52 | 289 | 0.0 | 4.0 | 0.00 | 0.00 | 0.00 | 73 | 1012.8 |
| 20260502121555 | 52 | 321 | 0.0 | 2.0 | 0.00 | 0.00 | 0.00 | 74 | 1012.5 |
| 20260502120322 | 52 | 226 | 1.0 | 3.0 | 0.00 | 0.00 | 0.00 | 76 | 1012.5 |
| 20260502114600 | 51 | 55 | 0.0 | 2.0 | 0.00 | 0.00 | 0.00 | 79 | 1012.5 |
| 20260502113014 | 51 | 169 | 0.0 | 1.0 | 0.00 | 0.00 | 0.00 | 83 | 1012.4 |
| 20260502111524 | 50 | 226 | 0.0 | 1.0 | 0.00 | 0.00 | 0.00 | 84 | 1012.5 |
| 20260502110045 | 50 | 226 | 0.0 | 1.0 | 0.00 | 0.00 | 0.00 | 85 | 1012.2 |
| 20260502104600 | 49 | 203 | 0.0 | 0.0 | 0.00 | 0.00 | 0.00 | 85 | 1012.2 |
| 20260502103018 | 49 | 160 | 0.0 | 0.0 | 0.00 | 0.00 | 0.00 | 84 | 1011.7 |
| 20260502101533 | 50 | 160 | 0.0 | 1.0 | 0.00 | 0.00 | 0.00 | 83 | 1011.6 |
| 20260502100311 | 50 | 160 | 0.0 | 0.0 | 0.00 | 0.00 | 0.00 | 82 | 1011.5 |
| 20260502091527 | 50 | 200 | 0.0 | 1.0 | 0.00 | 0.00 | 0.00 | 78 | 1012.1 |
| 20260502064511 | 52 | 204 | 1.0 | 6.0 | 0.00 | 0.00 | 0.00 | 72 | 1011.8 |
| 20260502063032 | 52 | 153 | 0.0 | 3.0 | 0.00 | 0.00 | 0.00 | 71 | 1012.0 |
| 20260502061549 | 52 | 178 | 0.0 | 3.0 | 0.00 | 0.00 | 0.00 | 71 | 1012.2 |
| 20260502060338 | 53 | 207 | 1.0 | 3.0 | 0.00 | 0.00 | 0.00 | 71 | 1012.4 |
| 20260502060032 | 52 | 143 | 1.0 | 3.0 | 0.00 | 0.00 | 0.00 | 71 | 1012.3 |
| 20260502054555 | 52 | 148 | 0.0 | 2.0 | 0.00 | 0.00 | 0.00 | 69 | 1012.2 |
| 20260502053004 | 52 | 203 | 0.0 | 2.0 | 0.00 | 0.00 | 0.00 | 68 | 1012.1 |
| 20260502051528 | 53 | 95 | 0.0 | 4.0 | 0.00 | 0.00 | 0.00 | 68 | 1012.2 |
| 20260502050036 | 53 | 200 | 0.0 | 3.0 | 0.00 | 0.00 | 0.00 | 67 | 1012.2 |
| 20260502044544 | 53 | 219 | 0.0 | 2.0 | 0.00 | 0.00 | 0.00 | 66 | 1012.1 |
| 20260502043015 | 53 | 236 | 0.0 | 3.0 | 0.00 | 0.00 | 0.00 | 65 | 1012.0 |
| 20260502041541 | 53 | 252 | 0.0 | 5.0 | 0.00 | 0.00 | 0.00 | 64 | 1012.1 |
| 20260502040314 | 54 | 187 | 2.0 | 6.0 | 0.00 | 0.00 | 0.00 | 64 | 1012.2 |
| 20260502040045 | 54 | 203 | 1.0 | 6.0 | 0.00 | 0.00 | 0.00 | 64 | 1012.2 |
| 20260502034504 | 54 | 197 | 1.0 | 5.0 | 0.00 | 0.00 | 0.00 | 65 | 1012.3 |
| 20260502033013 | 55 | 221 | 1.0 | 6.0 | 0.00 | 0.00 | 0.00 | 64 | 1012.0 |
| 20260502031526 | 55 | 221 | 1.0 | 6.0 | 0.00 | 0.00 | 0.00 | 64 | 1012.1 |
| 20260502030052 | 55 | 158 | 0.0 | 5.0 | 0.00 | 0.01 | 0.00 | 65 | 1012.0 |
| 20260502024558 | 55 | 243 | 2.0 | 4.0 | 0.00 | 0.01 | 0.00 | 66 | 1012.3 |